This is the latest recevied weather packets stored in our database for station/object KD8OUK. If no packets are shown the sender has not sent any weather packets the latest 10 day(s).
| Time | Temp. | Humidity | Pressure | Rain* | Wind** | Luminosity | Snow |
|---|---|---|---|---|---|---|---|
| 1777826428 | 15.56° C | 44% | 1017.6 hPa | 0 mm | - | - | - |
| 1777826120 | 14.44° C | 43% | 1017.8 hPa | 0 mm | - | - | - |
| 1777825824 | 15.56° C | 43% | 1017.8 hPa | 0 mm | - | - | - |
| 1777825523 | 15° C | 44% | 1017.9 hPa | 0 mm | - | - | - |
| 1777825221 | 15.56° C | 45% | 1018 hPa | 0 mm | - | - | - |
| 1777824919 | 15° C | 46% | 1017.9 hPa | 0 mm | - | - | - |
| 1777824617 | 15° C | 47% | 1017.8 hPa | 0 mm | - | - | - |
| 1777824315 | 15° C | 47% | 1017.8 hPa | 0 mm | - | - | - |
| 1777824019 | 15° C | 48% | 1018 hPa | 0 mm | - | - | - |
| 1777823730 | 14.44° C | 48% | 1018 hPa | 0 mm | - | - | - |
| 1777823422 | 14.44° C | 48% | 1018 hPa | 0 mm | - | - | - |
| 1777823132 | 14.44° C | 49% | 1018 hPa | 0 mm | - | - | - |
| 1777822819 | 14.44° C | 49% | 1018 hPa | 0 mm | - | - | - |
| 1777822529 | 13.89° C | 50% | 1018.1 hPa | 0 mm | - | - | - |
| 1777822221 | 13.89° C | 51% | 1018.1 hPa | 0 mm | - | - | - |
| 1777821931 | 13.33° C | 52% | 1018.2 hPa | 0 mm | - | - | - |
| 1777821623 | 12.78° C | 52% | 1018.3 hPa | 0 mm | - | - | - |
| 1777821315 | 12.78° C | 55% | 1018.3 hPa | 0 mm | - | - | - |
| 1777821021 | 11.67° C | 56% | 1018.3 hPa | 0 mm | - | - | - |
| 1777820731 | 11.11° C | 57% | 1018.3 hPa | 0 mm | - | - | - |
| 1777820423 | 11.11° C | 60% | 1018.3 hPa | 0 mm | - | - | - |
| 1777820132 | 10.56° C | 61% | 1018.3 hPa | 0 mm | - | - | - |
| 1777819825 | 10° C | 62% | 1018.4 hPa | 0 mm | - | - | - |
| 1777819517 | 10° C | 62% | 1018.5 hPa | 0 mm | - | - | - |
| 1777819227 | 10° C | 64% | 1018.5 hPa | 0 mm | - | - | - |
* Rain latest hour (hover to see other rain measurements)
** Current wind speed in m/s (hover to see current wind gust speed)